Location: Columbus
(35.2256°N, 82.1549°W)
Time: 16:37:50
(UTC-05:00)

ISS - Pass Details

Date: 06 December 2021
Orbit: 413 x 422 km, 51.6° (Epoch: 23 January)

Event Time Altitude Azimuth Distance (km) Brightness Sun altitude
Rises 19:43:53 0° 300° (WNW) 2,371 0.8 -29.5°
Reaches altitude 10° 19:46:12 10° 287° (WNW) 1,501 -0.2 -29.9°
Enters shadow 19:46:58 15° 279° (W) 1,251 -0.6 -30.1°
